Regional Weather Roundup
Issued by NWS Portland, ME

Current Version | Previous Version | Text Only | Print | Product List | Glossary Off
Versions: 1 2 3 4 5 6 7 8 9 10 11 12 13 14 15 16 17 18 19 20 21 22 23 24 25 26 27 28 29 30 31 32 33 34 35 36 37 38 39 40 41 42 43 44 45 46 47 48 49 50
000 ASUS41 KGYX 140305 RWRGYX WEATHER ROUNDUP FOR MAINE AND NEW HAMPSHIRE NATIONAL WEATHER SERVICE GRAY ME 1000 PM EST WED DEC 13 2017 MEZ002-005-006-010-012-015-018-020-021-024-026-027-029-140400- MAINE CITY SKY/WX TMP DP RH WIND PRES REMARKS PORTLAND CLEAR 17 6 62 W17G30 29.39R WCI 1 SANFORD CLEAR 15 6 67 W10G22 29.43R WCI 2 BAR HARBOR CLEAR 14 5 67 W13G21 29.30R WCI 0 WISCASSET CLEAR 14 5 67 VRB7 29.38R ROCKLAND CLEAR 15 3 59 W16 29.35R WCI -1 FRYEBURG CLEAR 14 1 56 W8 29.37R LEWISTONAUBURN CLEAR 8 2 76 CALM 29.36R AUGUSTA CLEAR 12 1 61 SW5 29.33R WATERVILLE CLEAR 11 2 67 SW7 29.26R BANGOR PTCLDY 11 3 70 SW7 29.27R GREENVILLE N/A 6 0 76 NW14G30 29.09R WCI -11 MILLINOCKET CLOUDY 11 3 70 W10G29 29.15R WCI -3 HOULTON CLOUDY 13 6 74 W13 29.07R WCI -2 PRESQUE ISLE FLURRIES 11 5 77 W15 29.03R WCI -5 FRENCHVILLE LGT SNOW 10 6 84 W14G23 28.93R FOG WCI -6 CARIBOU LGT SNOW 11 5 77 W16G28 28.99R WCI -6 $$ NHZ002-005-008-009-011-012-014-140400- NEW HAMPSHIRE CITY SKY/WX TMP DP RH WIND PRES REMARKS PORTSMOUTH PTCLDY 20 9 62 W16G31 29.44R WCI 5 ROCHESTER CLEAR 16 8 71 MISG 29.43R NASHUA CLEAR 19 11 70 CALM 29.50R MANCHESTER CLEAR 20 9 62 W12 29.47R WCI 8 CONCORD CLEAR 18 7 62 W10G17 29.45R WCI 6 LACONIA PTCLDY 14 5 67 W16G23 29.42R WCI -2 PLYMOUTH CLOUDY 14 6 68 CALM 29.44R BERLIN CLOUDY 10 1 67 NW8 29.31R WHITEFIELD CLOUDY 9 4 80 W8 29.38R JAFFREY MOCLDY 16 10 77 VRB6 29.45R KEENE CLOUDY 17 12 80 S6 29.52R LEBANON PTCLDY 12 4 70 CALM 29.46S MT WASHINGTON BLWGSNOW -13 -13 100 W77G87 N/A VSB 0 WCI -55 $$ VTZ005-007-008-140400- VERMONT CITY SKY/WX TMP DP RH WIND PRES REMARKS ST JOHNSBURY N/A 10 5 80 MISG 29.41R MONTPELIER PTCLDY 10 3 73 W7 29.44R BURLINGTON PTCLDY 14 1 56 NW15G21 29.49F WCI -1 $$ MAZ007-012-024-CTZ003-RIZ002-NYZ038-NYZ072-140400- SOUTHERN NEW ENGLAND AND NY CITY SKY/WX TMP DP RH WIND PRES REMARKS BOSTON CLEAR 23 9 55 W22G31 29.52S WCI 8 WORCESTER CLEAR 15 5 64 W12 29.49R WCI 2 NANTUCKET CLEAR 29 15 56 W20G32 29.56S WCI 16 PROVIDENCE CLOUDY 23 7 50 W13G20 29.59R WCI 11 HARTFORD CLOUDY 19 7 59 W8 29.60S ALBANY PTCLDY 18 6 59 W12 29.59S WCI 5 NEW YORK CITY CLOUDY 28 6 39 W16 29.68R WCI 16 $$ ANZ081-ANZ082-ANZ150-NHZ014-MEZ023>029-140400- COASTAL MARINE OBSERVATIONS STATION/POSITION TIME TEMP WIND PRES WAVE AIR SEA DIR/SP/G HT/PER (UTC) (F) (DEG/KT/KT) (MB) (FT/S) MOUNT DESERT ROC 0200 24 260/ 28/ 35 990.5R MATINICUS ROCK 0200 22 280/ 34/ 38 991.1R ISLE OF SHOALS 0200 22 260/ 31/ 38 996.0R JEFFREYS LEDGE 0236 48 N/A 9/ 6 GEORGES BANK BUO 0150 39 50 996.5 22/11 $$ .............KEY.............. WCI - WIND CHILL TC - TEMPERATURE IN CELSIUS VSB - VISIBILITY IN MILES HX - HEAT INDEX FAIR- INDICATES FEW OR NO CLOUDS BELOW 12,000 FT, WITH NO SIGNIFICANT WEATHER AND/OR OBSTRUCTIONS TO VISIBILITY.

USA.gov is the U.S. government's official web portal to all federal, state and local government web resources and services.